Wind_Speed
9 10 14 12 9 4 5 7 7 5 4 3 4 3 3 1 3 4 6 7 8 8 9 8 7 8 8 7 6 5 6 4 3 4 4 3 3 3 4 6 7 8 8
15 12 16 12 10 5 3 2 4 2 1 3 2 2 2 2 4 4 5 6 6 7 8 8 7 7 7 7 5 4 5 2 2 3 3 3 5 5 7 7 7 7 6
17 13 16 13 13 6 2 2 2 2 3 7 3 2 1 2 3 3 3 4 5 7 7 7 6 5 6 7 6 5 4 3 3 2 1 2 4 5 5 5 4 4 5
17 15 16 14 16 10 8 7 6 5 7 7 6 3 2 0 1 1 3 4 5 5 6 6 5 5 6 7 5 6 5 4 2 0 1 2 3 4 5 5 5 6 6
24 20 17 13 17 15 14 13 11 10 9 7 5 4 1 4 3 1 2 4 6 6 6 5 4 5 5 7 7 7 5 5 4 3 2 1 5 6 6 6 6 7 7
25 20 21 13 17 18 17 15 15 14 14 13 9 9 7 7 7 5 3 5 7 6 4 4 5 6 7 7 8 8 8 8 6 5 5 4 8 9 8 8 9 9 8
31 27 26 23 17 24 21 20 17 17 16 16 15 15 16 13 12 8 6 6 5 5 4 4 6 7 9 9 10 10 11 11 11 9 8 7 9 12 11 11 11 10 10
32 39 34 30 25 26 27 25 24 23 22 21 20 19 19 20 14 11 10 9 8 6 5 4 4 6 9 11 11 12 12 12 13 12 12 11 10 12 13 13 12 12 12
38 37 36 33 28 32 30 28 29 28 28 25 24 25 22 19 16 13 12 13 12 11 8 7 7 9 10 11 12 12 13 13 11 11 11 11 13 14 15 16 14 13 13
46 40 36 38 32 33 31 29 30 30 27 26 23 25 26 21 20 14 12 15 17 15 14 13 13 11 11 12 13 14 14 15 12 12 11 10 12 14 17 18 16 14 14
45 43 42 37 36 36 36 30 31 31 31 27 27 27 28 24 18 19 15 12 17 21 19 18 18 17 15 15 16 16 17 15 15 13 13 11 12 14 16 17 14 13 14
55 45 47 46 41 38 37 36 34 34 35 33 31 31 30 27 18 21 19 17 15 17 22 23 22 22 21 19 18 19 19 18 17 15 15 15 13 15 16 18 16 14 13
59 53 50 48 45 41 40 40 39 38 38 39 35 31 30 27 26 24 23 23 20 18 18 21 23 25 25 24 22 21 21 22 17 19 17 18 16 17 19 20 20 16 16
59 63 52 54 52 51 44 44 41 42 41 40 35 35 31 30 28 30 28 27 25 25 22 19 22 22 23 26 26 23 23 24 22 20 20 20 21 20 21 24 24 22 20
60 64 65 57 57 57 52 51 47 46 46 43 42 38 35 33 35 32 32 31 31 28 30 27 22 22 24 24 25 27 26 25 27 26 25 24 23 24 25 27 28 27 24
64 64 67 65 59 56 57 57 57 51 50 47 46 43 41 40 37 37 37 36 35 34 32 32 30 26 23 24 27 28 27 28 28 30 28 27 26 28 30 30 32 32 30
66 68 68 69 67 59 59 56 61 60 52 51 50 45 46 40 39 39 39 36 35 36 35 34 34 33 30 27 24 29 31 30 31 31 33 32 29 28 32 33 36 35 34
71 71 70 70 70 70 64 63 59 62 60 56 56 53 49 46 48 43 43 41 38 37 37 37 38 36 35 33 31 28 30 32 32 33 35 35 34 31 32 36 37 39 40
76 76 73 74 74 76 74 67 66 62 63 62 57 57 59 58 53 51 48 46 48 42 43 42 41 38 37 38 34 33 32 31 34 34 34 37 38 36 34 36 41 43 44
84 79 78 77 79 78 78 73 69 68 63 63 65 64 64 60 55 55 55 53 51 50 47 48 45 42 43 40 39 39 36 33 35 36 37 41 41 40 40 40 40 43 47
91 86 87 84 83 84 82 79 76 73 70 64 64 68 67 65 63 58 58 60 57 55 57 52 52 49 47 43 43 43 40 39 38 37 39 41 41 42 44 46 46 46 47
99 97 94 91 89 87 88 85 82 78 75 72 71 66 69 69 68 69 67 65 63 61 59 59 57 53 51 49 46 44 43 42 42 37 38 41 47 48 50 51 52 52 53
105 101 100 97 94 92 90 91 87 85 80 76 74 77 71 68 69 72 74 73 72 68 66 62 61 57 58 57 54 52 51 48 43 45 47 46 45 46 48 50 52 53 54
103 101 99 97 95 93 95 94 89 85 82 84 82 78 77 82 74 74 72 70 66 63 63 65 65 65 63 63 62 62 61 59 54 51 52 54 53 53 52 51 51 51 56
101 101 99 97 95 94 97 98 95 82 78 78 75 68 70 82 85 76 75 72 70 69 67 69 72 71 70 69 67 66 63 61 64 63 63 64 61 62 60 57 55 55 55
90 95 98 97 96 95 98 99 98 96 88 80 81 78 69 67 68 72 75 73 70 70 68 68 69 69 72 71 72 71 66 65 67 68 66 67 68 67 65 61 61 60 63
Wind_Direction
238 263 279 277 276 314 343 330 346 360 8 342 323 321 310 36 52 54 50 42 31 22 12 19 22 12 9 18 33 44 60 75 127 119 107 100 120 149 191 203 211 212 213
261 256 271 265 262 286 326 355 344 73 321 268 287 320 355 19 58 42 38 30 15 16 12 7 11 5 2 2 15 39 44 64 88 88 100 131 166 176 185 196 202 205 222
251 243 268 263 261 248 232 212 280 259 239 288 258 280 20 21 56 49 29 6 358 357 360 2 360 354 345 348 352 11 360 17 35 64 117 199 188 184 196 190 191 207 240
241 240 253 257 257 244 223 211 228 253 266 274 275 278 282 295 51 360 342 330 335 346 348 343 341 327 330 325 336 335 336 341 360 360 290 279 236 202 202 206 208 235 244
246 244 240 248 255 252 237 223 225 236 255 252 264 280 324 360 293 326 329 316 312 323 332 322 314 298 302 316 318 314 311 322 326 302 294 240 229 215 217 230 245 245 258
250 242 234 243 257 253 233 235 231 239 249 254 262 277 292 321 336 280 279 316 323 312 320 307 289 287 288 287 297 296 292 299 295 282 255 240 224 228 238 236 239 251 258
242 234 253 249 249 246 244 243 239 237 243 256 260 272 283 296 309 284 267 292 319 322 322 301 283 288 286 280 281 282 280 286 276 272 265 250 235 233 235 241 250 256 268
233 245 244 248 243 243 250 247 243 245 244 248 257 274 279 294 295 307 265 264 280 301 314 299 294 289 286 278 277 280 279 278 275 275 267 259 247 239 239 246 258 268 274
234 239 240 242 241 238 247 249 245 248 249 250 260 268 276 287 291 292 274 262 265 277 280 282 280 284 285 281 278 276 277 277 279 276 274 258 248 244 245 249 261 274 286
236 240 239 241 240 240 242 247 243 246 249 254 259 264 268 279 287 286 295 269 264 266 272 275 276 281 278 279 282 283 279 280 282 278 273 264 250 245 246 249 260 274 282
235 242 241 239 241 241 239 241 237 240 247 249 260 264 269 268 279 290 286 291 274 269 268 266 273 274 273 274 278 284 286 284 279 279 276 269 264 254 252 251 255 268 275
225 234 238 240 241 239 237 237 237 233 247 249 261 262 267 263 265 281 276 282 284 280 271 269 269 268 269 269 273 278 282 286 284 280 271 266 264 260 250 251 252 260 272
229 228 234 234 238 236 238 238 241 239 237 250 255 256 262 262 258 278 275 279 282 286 284 273 268 267 267 266 268 268 273 277 281 286 276 268 264 259 250 248 252 254 260
236 226 233 236 236 239 237 237 238 241 241 246 249 252 253 255 260 273 266 281 277 283 285 286 276 268 265 264 263 262 265 271 270 270 281 278 269 259 252 249 250 251 256
248 238 228 234 237 240 242 239 238 241 243 245 248 249 247 250 263 265 269 274 275 273 283 280 277 278 272 268 267 262 261 264 268 267 268 275 278 266 256 251 253 251 255
246 248 244 234 238 240 245 247 244 240 243 246 247 250 250 256 261 260 267 271 274 277 278 276 278 277 281 278 272 269 265 261 263 264 266 266 276 275 263 253 253 255 258
238 244 243 244 239 236 241 243 250 247 243 247 250 253 253 253 261 258 264 264 275 274 273 274 276 280 279 282 285 278 272 265 261 265 265 265 266 276 271 261 255 259 262
236 238 243 245 238 241 236 238 242 248 248 245 250 254 258 259 260 256 256 262 265 269 274 275 273 275 278 278 281 283 281 272 264 261 261 265 265 269 271 268 262 260 262
238 236 239 241 245 237 239 236 237 241 246 246 245 253 257 258 258 259 256 259 266 269 274 274 273 275 277 277 278 281 281 281 269 265 261 265 266 269 275 272 266 265 263
242 238 238 239 241 243 239 241 239 239 241 244 244 247 253 256 255 256 260 261 264 267 269 271 273 275 279 280 283 280 280 279 277 270 266 265 268 272 272 276 276 270 266
244 244 239 240 240 242 241 239 240 238 241 240 241 243 245 250 253 254 256 261 262 265 269 268 272 276 280 285 283 283 283 278 274 271 265 267 270 271 272 277 281 277 270
247 245 243 241 242 242 242 240 237 240 240 241 239 243 246 247 251 254 257 260 261 263 267 270 272 274 276 279 282 283 282 281 279 273 271 270 268 267 268 273 277 278 278
248 247 245 243 241 242 242 240 239 238 239 241 243 244 245 249 251 253 256 259 262 264 267 269 273 275 277 280 280 283 281 278 278 274 275 277 277 279 277 276 277 276 273
249 248 247 243 240 238 241 241 238 239 242 243 244 245 250 251 253 257 259 259 263 265 268 271 274 276 276 276 280 279 281 280 276 276 277 281 278 278 277 277 278 280 278
247 247 245 243 240 238 237 240 238 234 236 242 245 247 249 252 252 256 260 262 269 276 279 281 282 278 276 275 273 273 275 276 276 276 279 280 279 277 279 281 279 278 276
247 245 244 240 239 238 237 237 239 234 229 234 239 241 244 249 252 255 257 264 273 276 278 278 277 282 281 280 278 274 273 276 276 275 274 277 279 278 280 281 278 275 275
Height
10881 10882 10885 10885 10884 10883 10883 10884 10886 10886 10887 10887 10887 10887 10886 10885 10885 10885 10885 10885 10885 10885 10884 10884 10884 10884 10883 10883 10883 10882 10881 10881 10881 10880 10879 10878 10878 10878 10878 10879 10879 10878 10878
10879 10881 10883 10883 10883 10882 10882 10884 10885 10886 10887 10887 10887 10887 10886 10886 10885 10885 10885 10885 10886 10886 10885 10885 10885 10884 10884 10884 10884 10884 10883 10883 10882 10881 10880 10879 10879 10879 10879 10879 10879 10878 10877
10877 10878 10881 10881 10882 10881 10882 10883 10884 10886 10887 10888 10887 10887 10886 10886 10885 10885 10886 10886 10886 10886 10886 10885 10885 10885 10884 10884 10884 10883 10883 10882 10881 10881 10880 10880 10879 10879 10878 10878 10877 10876 10875
10874 10875 10879 10880 10880 10880 10881 10882 10884 10885 10886 10887 10887 10887 10886 10886 10886 10885 10885 10886 10886 10886 10886 10885 10885 10884 10884 10884 10884 10883 10882 10882 10882 10881 10880 10879 10878 10878 10878 10877 10876 10875 10874
10872 10874 10877 10877 10879 10879 10880 10881 10882 10884 10885 10886 10887 10887 10886 10886 10886 10885 10885 10885 10885 10885 10885 10885 10884 10884 10884 10884 10883 10882 10882 10881 10881 10880 10880 10879 10879 10878 10877 10877 10876 10875 10874
10870 10872 10874 10875 10877 10877 10878 10879 10881 10882 10883 10884 10885 10886 10886 10885 10885 10885 10885 10885 10885 10884 10884 10884 10884 10884 10883 10883 10883 10882 10881 10880 10880 10879 10878 10878 10878 10877 10877 10876 10875 10874 10872
10866 10868 10870 10872 10873 10875 10876 10877 10878 10880 10880 10882 10883 10883 10884 10884 10884 10884 10884 10884 10884 10884 10883 10883 10883 10883 10883 10882 10882 10881 10880 10879 10878 10877 10877 10876 10876 10876 10875 10875 10874 10872 10871
10861 10861 10865 10867 10869 10872 10874 10874 10875 10877 10878 10879 10880 10881 10882 10882 10882 10882 10882 10882 10882 10883 10882 10882 10882 10882 10881 10881 10880 10879 10878 10876 10875 10875 10874 10874 10873 10874 10874 10874 10873 10871 10869
10852 10854 10857 10861 10865 10868 10870 10870 10871 10873 10875 10876 10878 10878 10880 10880 10880 10880 10880 10880 10880 10880 10881 10881 10881 10880 10880 10879 10878 10877 10876 10874 10873 10873 10871 10871 10871 10871 10872 10872 10871 10869 10868
10844 10847 10850 10854 10859 10863 10865 10865 10867 10869 10871 10872 10874 10876 10877 10878 10878 10878 10878 10878 10878 10878 10879 10879 10879 10879 10878 10877 10876 10875 10874 10872 10871 10870 10869 10869 10868 10868 10869 10869 10869 10867 10865
10836 10840 10844 10847 10852 10856 10859 10861 10863 10865 10866 10868 10870 10872 10873 10875 10875 10876 10876 10876 10876 10875 10876 10877 10877 10877 10876 10875 10874 10873 10871 10871 10869 10868 10867 10866 10866 10866 10866 10866 10866 10864 10862
10829 10832 10836 10840 10844 10848 10852 10855 10858 10860 10861 10863 10866 10867 10869 10871 10872 10873 10873 10873 10873 10873 10872 10873 10873 10873 10873 10872 10872 10871 10869 10868 10867 10866 10865 10864 10863 10863 10862 10862 10862 10861 10858
10822 10828 10830 10834 10838 10841 10844 10848 10851 10854 10856 10858 10861 10862 10864 10865 10867 10868 10869 10870 10870 10870 10869 10869 10869 10869 10869 10869 10869 10868 10866 10864 10865 10862 10862 10860 10860 10859 10859 10858 10858 10856 10854
10813 10820 10824 10829 10833 10833 10837 10840 10843 10846 10849 10852 10854 10857 10859 10861 10862 10863 10864 10865 10866 10866 10866 10866 10865 10865 10865 10865 10864 10864 10863 10861 10861 10860 10858 10857 10856 10855 10854 10853 10852 10851 10849
10808 10812 10817 10818 10825 10828 10829 10833 10835 10838 10841 10846 10848 10851 10854 10855 10857 10858 10859 10860 10861 10863 10862 10862 10861 10861 10861 10860 10860 10859 10859 10858 10855 10856 10855 10853 10851 10850 10848 10848 10846 10845 10843
10797 10806 10812 10815 10818 10823 10827 10826 10828 10831 10834 10838 10841 10845 10848 10849 10851 10852 10853 10854 10856 10857 10858 10858 10858 10857 10856 10856 10855 10854 10854 10853 10851 10850 10849 10849 10846 10844 10842 10842 10840 10839 10838
10788 10786 10794 10803 10809 10812 10815 10821 10821 10826 10830 10832 10836 10839 10842 10843 10844 10846 10848 10849 10850 10851 10852 10853 10853 10853 10853 10852 10851 10849 10848 10847 10846 10844 10842 10842 10841 10839 10836 10836 10835 10833 10831
10775 10777 10779 10785 10792 10799 10801 10805 10810 10814 10821 10825 10829 10833 10835 10836 10837 10839 10841 10843 10844 10844 10846 10846 10846 10847 10847 10846 10845 10844 10843 10842 10841 10839 10835 10834 10834 10833 10831 10829 10828 10827 10824
10759 10766 10768 10769 10772 10780 10787 10791 10797 10801 10809 10813 10818 10821 10824 10827 10829 10830 10832 10835 10835 10837 10838 10839 10839 10840 10840 10839 10840 10838 10837 10836 10834 10832 10831 10828 10826 10826 10825 10822 10821 10819 10816
10739 10750 10756 10755 10756 10761 10775 10782 10787 10794 10795 10801 10806 10809 10811 10814 10818 10820 10822 10825 10828 10827 10829 10830 10832 10831 10831 10832 10832 10831 10831 10829 10827 10826 10825 10822 10821 10820 10818 10816 10814 10812 10809
10718 10727 10738 10742 10742 10745 10755 10767 10772 10777 10783 10787 10792 10794 10798 10803 10806 10809 10812 10814 10817 10819 10819 10822 10823 10823 10823 10824 10823 10823 10822 10820 10819 10819 10817 10814 10814 10813 10810 10807 10805 10804 10802
10696 10705 10714 10723 10728 10730 10735 10747 10757 10761 10766 10773 10778 10783 10786 10791 10793 10795 10797 10800 10805 10808 10810 10812 10814 10815 10814 10816 10817 10816 10812 10812 10811 10812 10809 10807 10806 10806 10804 10801 10798 10796 10793
10667 10680 10689 10700 10712 10716 10717 10726 10739 10746 10753 10760 10765 10767 10771 10773 10777 10782 10784 10788 10793 10798 10801 10802 10803 10805 10805 10808 10808 10809 10805 10804 10805 10802 10802 10799 10796 10794 10792 10791 10789 10787 10785
10643 10653 10664 10675 10690 10700 10702 10706 10721 10734 10743 10745 10750 10754 10760 10762 10764 10769 10774 10777 10781 10787 10791 10792 10793 10793 10793 10793 10797 10796 10797 10796 10795 10793 10792 10790 10789 10785 10782 10782 10780 10776 10772
10618 10624 10636 10649 10664 10677 10684 10688 10697 10716 10730 10735 10739 10741 10745 10748 10752 10756 10760 10766 10772 10774 10779 10779 10778 10779 10780 10780 10782 10781 10784 10783 10784 10782 10779 10777 10779 10774 10772 10771 10769 10763 10761
10591 10600 10607 10621 10636 10652 10664 10669 10676 10694 10705 10716 10722 10723 10726 10730 10738 10742 10754 10759 10762 10764 10765 10765 10764 10766 10767 10767 10767 10766 10769 10769 10769 10769 10769 10762 10761 10760 10761 10761 10758 10750 10747